CZ-4C DEB, 44613

Orbit data source: Space-Track

CZ-4C DEB, 44613 is space debris in SSO originally from a launch on Tue, 14 Nov 2017 UTC launched from the Taiyaun Space Center, China (TSC). Debris objects in space refer to the collection of defunct objects orbiting the Earth. Examples of debris include non-operational satellites, rocket bodies, and fragments generated from explosions, collisions, or faulty payload assembly.

Loading next visibility...
Identifier
44613, 2017-072D
Orbit
SSO
Last TLE update
3 days ago
Origin
Manufacturer
Unknown
Mission
Spacecraft
Bus & Motor
Unknown
Mass
Unknown
Launch date (UTC)
2017-11-14 (7 years ago)
Launch vehicle
Unknown
Launch site
Taiyaun Space Center, China (TSC)
Object type
Payload
Rocket body
Debris
Shape & HBR
Unknown
Radar Cross Section
Small (<0.1 m²)

Expand to show TLE details & history

TLE from 3 days ago
0 CZ-4C DEB
1 44613U 17072D   25126.15123052  .00000407  00000-0  35294-3 0  9997
2 44613  98.5404 196.2556 0229965  13.3709 347.3403 13.79691898361803
Epoch: 2025-05-06T03:37Z
Definitive object data (Epoch: 2025-05-06T03:37:46.316Z)
Latitude
-0.00007°
Longitude
-82.44192°
Altitude
803.246 km
Speed
7.535 km/s
True Right ascension
13h 05m 01s
True Declination
0° 00' 00"
Sunlit
Object was in full shadow at TLE epoch
Visualization TLE readout
Latitude
-76.53019°
Longitude
61.76755°
Altitude
1,034.153 km
Speed
7.313 km/s
Apparent Right ascension
01h 17m 06s
Apparent Declination
-61° 26' 45"
Sunlit
Object is in daylight
Visualization observer readout
Local Sidereal Time
14:08:17
Azimuth
164.217° S
Elevation
-67.09°
Doppler factor
1
Orbital elements
Apogee altitude
1,130.984 km
Perigee altitude
793.381 km
Semi-major axis
7,340.319 km
Eccentricity
0.0229965
Inclination
98.5404°
RAAN
196.2556°
Arg. of periapsis
13.3709°
True anomaly
346.74613°
Mean anomaly
347.3403°
Eccentric anomaly
347.04491°
Mean motion
3.4512 °/min
BSTAR
0.00035294
Orbital period
104.31 mins
Loading maneuver chart data...
Loading SW <> Apogee altitude chart data...
Loading historical data...
Loading historical data...
Loading historical data...
Loading historical data...
Loading historical data...
Loading historical data...
Loading historical data...
Other satellites on launch #72 in the year 2017 (2017-11-14 UTC)

CZ-4C DEB Visibility forecast

Observer location: undefined°, undefined°

Span
Click to sort rows by Start time (UTC) header in descending order
Start Az.
Max El. time (UTC)
Max El. Az.
Max El.
End time (UTC)
End Az.
5 mins2025-05-09 15:48:32.127Z67.29° ENE2025-05-09 15:50:32.127Z86.175° E13.382°2025-05-09 15:53:32.127Z113.889° SE
11 mins2025-05-09 17:29:32.127Z14.195° NNE2025-05-09 17:34:32.127Z126.312° SE44.978°2025-05-09 17:40:32.127Z194.125° SSW
6 mins2025-05-09 19:14:32.127Z323.614° NNW2025-05-09 19:16:32.127Z302.868° NW16.086°2025-05-09 19:20:32.127Z264.908° W
7 mins2025-05-10 03:30:32.127Z107.848° ESE2025-05-10 03:33:32.127Z65.148° ENE22.623°2025-05-10 03:37:32.127Z14.45° NNE
8 mins2025-05-10 05:13:32.127Z205.968° SW2025-05-10 05:16:32.127Z265.599° W32.909°2025-05-10 05:21:32.127Z331.96° NNW
|